VOE3AA LIPE-LICG

Flight info

Callsign VOE3AA
Flight time 1h 39m
Altitude 19000
Route LOMED L995 AMTEL/N0443F390 DCT RONAB/N0396F190 M740 ROBET
Aircraft A319/M-SDE3FGHIRWY/LB1

Departure

Time 2026-04-12 10:43
Airport Bologna Guglielmo Marconi Airport (LIPE)

Arrival

Time 2026-04-12 12:23
Airport Pantelleria Airport (LICG)
Time Latitude Longitude Altitude Speed Heading
2026-04-12 10:22 44.53205 11.28938 126 ft 0 kts 207°
2026-04-12 10:34 44.53208 11.28941 126 ft 2 kts 207°
2026-04-12 10:34 44.53222 11.28950 126 ft 2 kts 206°
2026-04-12 10:34 44.53230 11.28956 126 ft 2 kts 207°
2026-04-12 10:34 44.53244 11.28961 125 ft 2 kts 175°
2026-04-12 10:35 44.53259 11.28956 125 ft 2 kts 149°
2026-04-12 10:35 44.53270 11.28942 125 ft 1 kts 122°
2026-04-12 10:35 44.53273 11.28934 125 ft 1 kts 112°
2026-04-12 10:35 44.53274 11.28930 125 ft 0 kts 115°
2026-04-12 10:37 44.53274 11.28932 125 ft 0 kts 116°
2026-04-12 10:37 44.53270 11.28941 125 ft 1 kts 117°
2026-04-12 10:38 44.53264 11.28959 125 ft 2 kts 117°
2026-04-12 10:38 44.53254 11.28985 125 ft 3 kts 115°
2026-04-12 10:38 44.53259 11.29021 125 ft 5 kts 45°
2026-04-12 10:38 44.53296 11.29008 124 ft 7 kts 302°
2026-04-12 10:39 44.53326 11.28927 124 ft 10 kts 296°
2026-04-12 10:39 44.53361 11.28829 123 ft 12 kts 297°
2026-04-12 10:39 44.53404 11.28710 121 ft 15 kts 296°
2026-04-12 10:39 44.53456 11.28566 118 ft 17 kts 296°
2026-04-12 10:40 44.53514 11.28404 117 ft 19 kts 296°
2026-04-12 10:40 44.53574 11.28239 117 ft 19 kts 297°
2026-04-12 10:40 44.53635 11.28068 117 ft 19 kts 296°
2026-04-12 10:40 44.53696 11.27900 119 ft 18 kts 296°
2026-04-12 10:41 44.53753 11.27739 120 ft 18 kts 296°
2026-04-12 10:41 44.53811 11.27578 121 ft 18 kts 296°
2026-04-12 10:41 44.53869 11.27417 122 ft 16 kts 296°
2026-04-12 10:41 44.53941 11.27304 124 ft 15 kts 326°
2026-04-12 10:42 44.54033 11.27221 123 ft 14 kts 332°
2026-04-12 10:42 44.54105 11.27279 124 ft 13 kts 87°
2026-04-12 10:42 44.54069 11.27408 122 ft 15 kts 117°
2026-04-12 10:42 44.54007 11.27581 120 ft 36 kts 116°
2026-04-12 10:43 44.53326 11.29474 280 ft 157 kts 115°
2026-04-12 10:43 44.52959 11.30844 1043 ft 152 kts 93°
2026-04-12 10:43 44.53240 11.32203 1779 ft 154 kts 52°
2026-04-12 10:44 44.54066 11.33214 2419 ft 166 kts 37°
2026-04-12 10:44 44.55081 11.34111 2977 ft 183 kts 33°
2026-04-12 10:44 44.56238 11.35057 3503 ft 205 kts 32°
2026-04-12 10:44 44.57488 11.36061 4307 ft 213 kts 32°
2026-04-12 10:45 44.58778 11.37096 5189 ft 217 kts 32°
2026-04-12 10:45 44.60086 11.38151 6045 ft 222 kts 32°
2026-04-12 10:45 44.61431 11.39239 6883 ft 227 kts 32°
2026-04-12 10:45 44.62784 11.40335 7718 ft 231 kts 32°
2026-04-12 10:46 44.64184 11.41471 8562 ft 235 kts 32°
2026-04-12 10:46 44.65503 11.42821 9298 ft 240 kts 54°
2026-04-12 10:46 44.66124 11.44978 9783 ft 251 kts 90°
2026-04-12 10:46 44.65685 11.47354 10271 ft 264 kts 124°
2026-04-12 10:47 44.64261 11.49060 10763 ft 280 kts 157°
2026-04-12 10:47 44.62314 11.49581 11233 ft 298 kts 175°
2026-04-12 10:47 44.60177 11.49676 11692 ft 316 kts 178°
2026-04-12 10:47 44.57913 11.49745 12107 ft 334 kts 177°
2026-04-12 10:48 44.55566 11.49854 12746 ft 344 kts 176°
2026-04-12 10:48 44.53148 11.50001 13560 ft 348 kts 176°
2026-04-12 10:48 44.50740 11.50170 14317 ft 351 kts 176°
2026-04-12 10:48 44.48304 11.50357 15030 ft 354 kts 175°
2026-04-12 10:49 44.45841 11.50553 15811 ft 356 kts 175°
2026-04-12 10:49 44.43378 11.50755 16514 ft 359 kts 175°
2026-04-12 10:49 44.40884 11.50963 17232 ft 362 kts 175°
2026-04-12 10:49 44.38364 11.51176 17910 ft 364 kts 175°
2026-04-12 10:50 44.35836 11.51389 18584 ft 367 kts 176°
2026-04-12 10:50 44.33273 11.51606 19221 ft 370 kts 176°
2026-04-12 10:50 44.30705 11.51823 19786 ft 374 kts 176°
2026-04-12 10:50 44.28120 11.52041 20346 ft 378 kts 176°
2026-04-12 10:51 44.25483 11.52265 20903 ft 382 kts 176°
2026-04-12 10:51 44.22818 11.52490 21464 ft 386 kts 176°
2026-04-12 10:51 44.20114 11.52718 22005 ft 390 kts 176°
2026-04-12 10:51 44.17426 11.52945 22529 ft 393 kts 176°
2026-04-12 10:52 44.14682 11.53177 23059 ft 396 kts 176°
2026-04-12 10:52 44.11938 11.53409 23563 ft 399 kts 176°
2026-04-12 10:52 44.09140 11.53646 24060 ft 402 kts 176°
2026-04-12 10:52 44.06371 11.53881 24529 ft 406 kts 176°
2026-04-12 10:53 44.03512 11.54123 25032 ft 408 kts 176°
2026-04-12 10:53 44.00710 11.54359 25510 ft 411 kts 176°
2026-04-12 10:53 43.97823 11.54602 25961 ft 414 kts 176°
2026-04-12 10:53 43.94972 11.54841 26375 ft 417 kts 177°
2026-04-12 10:54 43.92040 11.55088 26818 ft 420 kts 177°
2026-04-12 10:54 43.89127 11.55331 27244 ft 422 kts 177°
2026-04-12 10:54 43.86191 11.55576 27631 ft 425 kts 177°
2026-04-12 10:54 43.83237 11.55823 28014 ft 428 kts 177°
2026-04-12 10:55 43.80265 11.56070 28403 ft 431 kts 177°
2026-04-12 10:55 43.77287 11.56318 28779 ft 434 kts 177°
2026-04-12 10:55 43.74260 11.56571 29172 ft 436 kts 177°
2026-04-12 10:55 43.71218 11.56824 29562 ft 438 kts 177°
2026-04-12 10:56 43.68198 11.57075 29913 ft 440 kts 177°
2026-04-12 10:56 43.65122 11.57330 30382 ft 439 kts 178°
2026-04-12 10:56 43.62119 11.57581 30879 ft 438 kts 178°
2026-04-12 10:56 43.59063 11.57835 31400 ft 436 kts 178°
2026-04-12 10:57 43.56072 11.58084 31882 ft 434 kts 178°
2026-04-12 10:57 43.53051 11.58334 32386 ft 432 kts 178°
2026-04-12 10:57 43.50090 11.58577 32845 ft 431 kts 178°
2026-04-12 10:57 43.47113 11.58822 33279 ft 429 kts 178°
2026-04-12 10:58 43.44138 11.59070 33723 ft 428 kts 178°
2026-04-12 10:58 43.41163 11.59313 34161 ft 426 kts 178°
2026-04-12 10:58 43.38230 11.59554 34589 ft 425 kts 179°
2026-04-12 10:58 43.35284 11.59795 35072 ft 423 kts 178°
2026-04-12 10:59 43.32350 11.60033 35511 ft 422 kts 178°
2026-04-12 10:59 43.29450 11.60271 35913 ft 421 kts 178°
2026-04-12 10:59 43.26527 11.60509 36284 ft 420 kts 178°
2026-04-12 10:59 43.23623 11.60745 36653 ft 419 kts 178°
2026-04-12 11:00 43.20722 11.60989 37011 ft 418 kts 178°
2026-04-12 11:00 43.17828 11.61244 37319 ft 417 kts 178°
2026-04-12 11:00 43.14921 11.61503 37578 ft 417 kts 177°
2026-04-12 11:00 43.12027 11.61763 37793 ft 418 kts 177°
2026-04-12 11:01 43.09160 11.62020 37979 ft 419 kts 177°
2026-04-12 11:01 43.06261 11.62276 38168 ft 419 kts 177°
2026-04-12 11:01 43.03347 11.62534 38312 ft 421 kts 177°
2026-04-12 11:01 43.00406 11.62794 38461 ft 422 kts 177°
2026-04-12 11:02 42.97493 11.63051 38586 ft 423 kts 177°
2026-04-12 11:02 42.94554 11.63312 38730 ft 423 kts 177°
2026-04-12 11:02 42.91631 11.63570 38901 ft 423 kts 177°
2026-04-12 11:02 42.88710 11.63828 38914 ft 423 kts 177°
2026-04-12 11:03 42.82802 11.64346 38917 ft 424 kts 177°
2026-04-12 11:03 42.75973 11.64945 38917 ft 424 kts 177°
2026-04-12 11:04 42.71085 11.65373 38915 ft 423 kts 178°
2026-04-12 11:04 42.65204 11.65886 38916 ft 422 kts 178°
2026-04-12 11:05 42.59361 11.66396 38915 ft 422 kts 178°
2026-04-12 11:05 42.53521 11.66904 38909 ft 422 kts 178°
2026-04-12 11:06 42.47651 11.67414 38918 ft 422 kts 178°
2026-04-12 11:06 42.41822 11.67920 38912 ft 421 kts 178°
2026-04-12 11:07 42.35980 11.68424 38914 ft 421 kts 178°
2026-04-12 11:07 42.33094 11.68673 38762 ft 420 kts 178°
2026-04-12 11:07 42.29196 11.69010 38944 ft 419 kts 178°
2026-04-12 11:08 42.27275 11.69175 38792 ft 419 kts 178°
2026-04-12 11:08 42.24361 11.69426 38882 ft 420 kts 178°
2026-04-12 11:08 42.18539 11.69927 38910 ft 419 kts 178°
2026-04-12 11:09 42.12716 11.70427 38909 ft 419 kts 178°
2026-04-12 11:09 42.06898 11.70925 38909 ft 419 kts 178°
2026-04-12 11:10 42.01092 11.71423 38907 ft 419 kts 178°
2026-04-12 11:10 41.95286 11.71918 38910 ft 419 kts 178°
2026-04-12 11:11 41.89497 11.72411 38907 ft 417 kts 178°
2026-04-12 11:11 41.83722 11.72903 38908 ft 417 kts 178°
2026-04-12 11:12 41.77942 11.73394 38906 ft 417 kts 178°
2026-04-12 11:12 41.72152 11.73884 38904 ft 416 kts 178°
2026-04-12 11:13 41.66420 11.74370 38898 ft 416 kts 178°
2026-04-12 11:13 41.60634 11.74858 38897 ft 415 kts 178°
2026-04-12 11:14 41.54915 11.75338 38890 ft 414 kts 178°
2026-04-12 11:14 41.49156 11.75824 38889 ft 414 kts 178°
2026-04-12 11:15 41.43429 11.76305 38892 ft 414 kts 178°
2026-04-12 11:15 41.36762 11.76863 38893 ft 413 kts 178°
2026-04-12 11:16 41.31987 11.77262 38889 ft 412 kts 178°
2026-04-12 11:16 41.25356 11.77819 38886 ft 411 kts 179°
2026-04-12 11:17 41.19659 11.78293 38886 ft 411 kts 178°
2026-04-12 11:17 41.13974 11.78764 38887 ft 410 kts 178°
2026-04-12 11:18 41.09221 11.79158 38888 ft 410 kts 178°
2026-04-12 11:18 41.03535 11.79632 38883 ft 409 kts 178°
2026-04-12 11:19 40.97875 11.80101 38884 ft 408 kts 178°
2026-04-12 11:19 40.92213 11.80567 38883 ft 409 kts 178°
2026-04-12 11:20 40.86533 11.81038 38878 ft 408 kts 178°
2026-04-12 11:20 40.80866 11.81505 38867 ft 408 kts 178°
2026-04-12 11:21 40.75243 11.81968 38876 ft 407 kts 178°
2026-04-12 11:21 40.68636 11.82510 38872 ft 407 kts 178°
2026-04-12 11:22 40.62993 11.82972 38855 ft 407 kts 178°
2026-04-12 11:22 40.58292 11.83354 38852 ft 406 kts 178°
2026-04-12 11:23 40.52686 11.83814 38849 ft 406 kts 178°
2026-04-12 11:23 40.46099 11.84353 38858 ft 406 kts 178°
2026-04-12 11:24 40.40467 11.84811 38854 ft 406 kts 178°
2026-04-12 11:24 40.35772 11.85191 38847 ft 407 kts 178°
2026-04-12 11:25 40.30305 11.85636 38826 ft 406 kts 178°
2026-04-12 11:25 40.25391 11.86031 38821 ft 406 kts 178°
2026-04-12 11:26 40.20685 11.86413 38829 ft 405 kts 178°
2026-04-12 11:26 40.15059 11.86869 38835 ft 405 kts 178°
2026-04-12 11:27 40.09466 11.87320 38826 ft 404 kts 178°
2026-04-12 11:27 40.02959 11.87844 38826 ft 403 kts 178°
2026-04-12 11:28 39.97351 11.88292 38826 ft 404 kts 178°
2026-04-12 11:28 39.91764 11.88738 38820 ft 404 kts 178°
2026-04-12 11:29 39.86143 11.89179 38823 ft 403 kts 179°
2026-04-12 11:29 39.80531 11.89454 38808 ft 403 kts 180°
2026-04-12 11:30 39.74938 11.89701 38818 ft 402 kts 180°
2026-04-12 11:30 39.69369 11.89950 38808 ft 401 kts 180°
2026-04-12 11:31 39.64700 11.90165 38822 ft 402 kts 180°
2026-04-12 11:31 39.58207 11.90463 38813 ft 402 kts 180°
2026-04-12 11:32 39.52631 11.90720 38804 ft 401 kts 180°
2026-04-12 11:32 39.47049 11.90979 38808 ft 400 kts 180°
2026-04-12 11:33 39.41496 11.91232 38794 ft 400 kts 180°
2026-04-12 11:33 39.35938 11.91485 38802 ft 400 kts 180°
2026-04-12 11:34 39.30399 11.91741 38781 ft 400 kts 180°
2026-04-12 11:34 39.25787 11.91950 38799 ft 400 kts 180°
2026-04-12 11:35 39.20233 11.92207 38781 ft 399 kts 180°
2026-04-12 11:35 39.13762 11.92499 38786 ft 400 kts 180°
2026-04-12 11:36 39.08195 11.92751 38802 ft 399 kts 180°
2026-04-12 11:36 39.02687 11.93004 38781 ft 399 kts 180°
2026-04-12 11:37 38.97157 11.93253 38775 ft 399 kts 180°
2026-04-12 11:37 38.91619 11.93504 38771 ft 398 kts 180°
2026-04-12 11:38 38.87014 11.93711 38784 ft 397 kts 180°
2026-04-12 11:38 38.80554 11.94004 38775 ft 397 kts 181°
2026-04-12 11:39 38.75964 11.94212 38776 ft 397 kts 181°
2026-04-12 11:39 38.69532 11.94501 38763 ft 397 kts 181°
2026-04-12 11:40 38.64048 11.94743 38867 ft 396 kts 181°
2026-04-12 11:40 38.58541 11.94992 38771 ft 395 kts 181°
2026-04-12 11:41 38.53096 11.95239 38760 ft 394 kts 181°
2026-04-12 11:41 38.47622 11.95485 38755 ft 393 kts 181°
2026-04-12 11:42 38.42145 11.95729 38755 ft 393 kts 181°
2026-04-12 11:43 38.33972 11.96093 38770 ft 393 kts 181°
2026-04-12 11:43 38.28502 11.96336 38745 ft 391 kts 181°
2026-04-12 11:43 38.25827 11.96459 38527 ft 387 kts 181°
2026-04-12 11:44 38.23125 11.96577 37759 ft 389 kts 181°
2026-04-12 11:44 38.20415 11.96692 36865 ft 393 kts 181°
2026-04-12 11:44 38.17688 11.96808 35982 ft 396 kts 180°
2026-04-12 11:44 38.14938 11.96927 35092 ft 399 kts 180°
2026-04-12 11:45 38.12191 11.97047 34210 ft 401 kts 179°
2026-04-12 11:45 38.09383 11.97172 33387 ft 403 kts 179°
2026-04-12 11:45 38.06589 11.97297 32576 ft 405 kts 178°
2026-04-12 11:45 38.03784 11.97417 31771 ft 406 kts 178°
2026-04-12 11:46 38.00960 11.97541 30962 ft 406 kts 177°
2026-04-12 11:46 37.98157 11.97666 30151 ft 407 kts 177°
2026-04-12 11:46 37.95353 11.97794 29281 ft 407 kts 177°
2026-04-12 11:46 37.92524 11.97928 28402 ft 406 kts 178°
2026-04-12 11:47 37.89727 11.98055 27552 ft 405 kts 178°
2026-04-12 11:47 37.87825 11.98141 26985 ft 404 kts 178°
2026-04-12 11:47 37.84129 11.98306 25882 ft 402 kts 179°
2026-04-12 11:47 37.81333 11.98430 25357 ft 392 kts 179°
2026-04-12 11:48 37.78686 11.98547 25101 ft 379 kts 179°
2026-04-12 11:48 37.76078 11.98659 24825 ft 375 kts 179°
2026-04-12 11:48 37.73471 11.98770 24524 ft 373 kts 179°
2026-04-12 11:48 37.70895 11.98882 24216 ft 372 kts 179°
2026-04-12 11:49 37.68303 11.98993 23843 ft 369 kts 179°
2026-04-12 11:49 37.65753 11.99105 23432 ft 366 kts 179°
2026-04-12 11:49 37.63237 11.99213 23011 ft 363 kts 180°
2026-04-12 11:49 37.60706 11.99322 22576 ft 361 kts 180°
2026-04-12 11:50 37.58200 11.99431 22134 ft 358 kts 180°
2026-04-12 11:50 37.55750 11.99538 21689 ft 355 kts 179°
2026-04-12 11:50 37.53286 11.99579 21204 ft 352 kts 182°
2026-04-12 11:50 37.50867 11.99489 20734 ft 348 kts 183°
2026-04-12 11:51 37.48444 11.99391 20261 ft 345 kts 183°
2026-04-12 11:51 37.46074 11.99294 19789 ft 342 kts 183°
2026-04-12 11:51 37.43712 11.99197 19319 ft 339 kts 183°
2026-04-12 11:51 37.41336 11.99099 18830 ft 336 kts 183°
2026-04-12 11:52 37.39023 11.99004 18358 ft 333 kts 183°
2026-04-12 11:52 37.36713 11.98908 17892 ft 330 kts 183°
2026-04-12 11:52 37.34439 11.98812 17415 ft 328 kts 183°
2026-04-12 11:52 37.32158 11.98715 16915 ft 326 kts 183°
2026-04-12 11:53 37.29916 11.98615 16403 ft 326 kts 182°
2026-04-12 11:53 37.27649 11.98518 15879 ft 325 kts 182°
2026-04-12 11:53 37.25381 11.98422 15323 ft 326 kts 182°
2026-04-12 11:53 37.23147 11.98326 14788 ft 325 kts 181°
2026-04-12 11:54 37.20875 11.98231 14281 ft 324 kts 181°
2026-04-12 11:54 37.18635 11.98136 13763 ft 322 kts 180°
2026-04-12 11:54 37.16419 11.98044 13261 ft 320 kts 180°
2026-04-12 11:54 37.14197 11.97954 12742 ft 319 kts 180°
2026-04-12 11:55 37.11989 11.97864 12239 ft 316 kts 180°
2026-04-12 11:55 37.09786 11.97773 11764 ft 313 kts 180°
2026-04-12 11:55 37.07614 11.97683 11262 ft 311 kts 181°
2026-04-12 11:55 37.05520 11.97200 10760 ft 313 kts 199°
2026-04-12 11:56 37.03680 11.95713 10355 ft 316 kts 219°
2026-04-12 11:56 37.02305 11.93639 10170 ft 307 kts 226°
2026-04-12 11:56 37.01026 11.91563 10007 ft 295 kts 226°
2026-04-12 11:56 36.99795 11.89565 9849 ft 283 kts 226°
2026-04-12 11:57 36.98611 11.87651 9705 ft 272 kts 226°
2026-04-12 11:57 36.97462 11.85800 9357 ft 271 kts 225°
2026-04-12 11:57 36.96302 11.83939 8982 ft 270 kts 225°
2026-04-12 11:57 36.95158 11.82104 8637 ft 268 kts 225°
2026-04-12 11:58 36.94014 11.80264 8300 ft 267 kts 225°
2026-04-12 11:58 36.92875 11.78431 7963 ft 265 kts 225°
2026-04-12 11:58 36.91756 11.76631 7640 ft 262 kts 224°
2026-04-12 11:58 36.90648 11.74854 7325 ft 260 kts 224°
2026-04-12 11:59 36.89527 11.73055 6999 ft 259 kts 224°
2026-04-12 11:59 36.88429 11.71295 6729 ft 255 kts 224°
2026-04-12 11:59 36.87363 11.69580 6649 ft 244 kts 224°
2026-04-12 11:59 36.86648 11.68430 6594 ft 236 kts 224°
2026-04-12 12:00 36.86130 11.67597 6547 ft 230 kts 224°
2026-04-12 12:00 36.85120 11.66096 6434 ft 215 kts 211°
2026-04-12 12:00 36.83857 11.65391 6285 ft 196 kts 181°
2026-04-12 12:00 36.82523 11.65566 5992 ft 192 kts 163°
2026-04-12 12:01 36.81215 11.65985 5721 ft 193 kts 164°
2026-04-12 12:01 36.80215 11.66291 5521 ft 192 kts 164°
2026-04-12 12:01 36.79758 11.66431 5429 ft 192 kts 165°
2026-04-12 12:01 36.78466 11.66823 5164 ft 191 kts 163°
2026-04-12 12:02 36.77294 11.67561 4865 ft 191 kts 137°
2026-04-12 12:02 36.76689 11.68665 4639 ft 196 kts 116°
2026-04-12 12:02 36.76510 11.70371 4360 ft 208 kts 89°
2026-04-12 12:02 36.76714 11.71539 4209 ft 214 kts 85°
2026-04-12 12:03 36.76947 11.72718 4159 ft 206 kts 85°
2026-04-12 12:03 36.77253 11.74250 4142 ft 194 kts 86°
2026-04-12 12:03 36.77566 11.75828 4076 ft 184 kts 86°
2026-04-12 12:03 36.77693 11.76481 4034 ft 182 kts 86°
2026-04-12 12:04 36.77889 11.77497 4002 ft 177 kts 86°
2026-04-12 12:04 36.78269 11.79417 3714 ft 165 kts 88°
2026-04-12 12:04 36.78535 11.80763 3410 ft 151 kts 88°
2026-04-12 12:04 36.78679 11.81481 3259 ft 142 kts 89°
2026-04-12 12:05 36.78844 11.82316 3097 ft 136 kts 89°
2026-04-12 12:05 36.79062 11.83463 2906 ft 135 kts 89°
2026-04-12 12:05 36.79277 11.84594 2709 ft 134 kts 90°
2026-04-12 12:05 36.79402 11.85254 2589 ft 134 kts 90°
2026-04-12 12:06 36.79620 11.86370 2392 ft 133 kts 90°
2026-04-12 12:06 36.79833 11.87479 2193 ft 132 kts 90°
2026-04-12 12:06 36.80048 11.88601 1987 ft 132 kts 90°
2026-04-12 12:06 36.80266 11.89715 1779 ft 132 kts 91°
2026-04-12 12:07 36.80478 11.90819 1573 ft 132 kts 88°
2026-04-12 12:07 36.80692 11.91919 1371 ft 131 kts 88°
2026-04-12 12:07 36.80905 11.92988 1154 ft 119 kts 88°
2026-04-12 12:07 36.81059 11.93927 895 ft 101 kts 87°
2026-04-12 12:08 36.81253 11.94714 747 ft 89 kts 90°
2026-04-12 12:08 36.81381 11.95482 675 ft 96 kts 85°
2026-04-12 12:08 36.81568 11.96234 700 ft 89 kts 85°
2026-04-12 12:08 36.81702 11.96979 1275 ft 95 kts 93°
2026-04-12 12:09 36.81857 11.97771 1851 ft 98 kts 95°
2026-04-12 12:09 36.82004 11.98612 2457 ft 107 kts 91°
2026-04-12 12:09 36.82174 11.99568 2921 ft 123 kts 90°
2026-04-12 12:09 36.82382 12.00692 3406 ft 142 kts 88°
2026-04-12 12:10 36.82621 12.01944 3941 ft 159 kts 88°
2026-04-12 12:10 36.82891 12.03337 4508 ft 176 kts 86°
2026-04-12 12:10 36.83198 12.04906 4878 ft 195 kts 85°
2026-04-12 12:10 36.83541 12.06599 5028 ft 207 kts 81°
2026-04-12 12:11 36.84290 12.08208 5030 ft 223 kts 54°
2026-04-12 12:11 36.85607 12.09310 5032 ft 238 kts 26°
2026-04-12 12:11 36.87265 12.09585 5029 ft 249 kts 356°
2026-04-12 12:11 36.88705 12.09229 5032 ft 251 kts 347°
2026-04-12 12:12 36.89162 12.09080 5030 ft 251 kts 347°
2026-04-12 12:12 36.90794 12.08276 5009 ft 252 kts 323°
2026-04-12 12:12 36.91956 12.06688 5016 ft 245 kts 291°
2026-04-12 12:12 36.92364 12.04720 5017 ft 231 kts 260°
2026-04-12 12:13 36.92098 12.02797 5010 ft 221 kts 244°
2026-04-12 12:13 36.91672 12.00954 5002 ft 220 kts 244°
2026-04-12 12:13 36.91250 11.99121 5008 ft 221 kts 245°
2026-04-12 12:13 36.90850 11.97268 5016 ft 221 kts 246°
2026-04-12 12:14 36.90466 11.95408 5017 ft 221 kts 246°
2026-04-12 12:14 36.90091 11.93530 5016 ft 222 kts 246°
2026-04-12 12:14 36.89727 11.91675 5009 ft 222 kts 247°
2026-04-12 12:14 36.89359 11.89797 5007 ft 223 kts 247°
2026-04-12 12:15 36.88991 11.87925 4890 ft 223 kts 248°
2026-04-12 12:15 36.88622 11.86031 4770 ft 222 kts 247°
2026-04-12 12:15 36.88257 11.84155 4643 ft 222 kts 247°
2026-04-12 12:15 36.87890 11.82286 4528 ft 223 kts 247°
2026-04-12 12:16 36.87509 11.80435 4399 ft 216 kts 240°
2026-04-12 12:16 36.86848 11.78858 4269 ft 197 kts 222°
2026-04-12 12:16 36.85932 11.77694 4143 ft 180 kts 207°
2026-04-12 12:16 36.84869 11.77020 4011 ft 163 kts 179°
2026-04-12 12:17 36.83804 11.77088 4075 ft 148 kts 170°
2026-04-12 12:17 36.82791 11.77188 4026 ft 144 kts 171°
2026-04-12 12:17 36.81799 11.77271 4010 ft 143 kts 171°
2026-04-12 12:17 36.80798 11.77357 4002 ft 143 kts 172°
2026-04-12 12:18 36.79828 11.77435 3982 ft 132 kts 171°
2026-04-12 12:18 36.78979 11.77647 3968 ft 124 kts 148°
2026-04-12 12:18 36.78410 11.78464 3857 ft 130 kts 119°
2026-04-12 12:18 36.78326 11.79584 3615 ft 133 kts 92°
2026-04-12 12:19 36.78531 11.80685 3377 ft 130 kts 90°
2026-04-12 12:19 36.78739 11.81782 3161 ft 128 kts 91°
2026-04-12 12:19 36.78941 11.82859 2961 ft 127 kts 91°
2026-04-12 12:19 36.79143 11.83907 2766 ft 124 kts 91°
2026-04-12 12:20 36.79343 11.84927 2577 ft 119 kts 91°
2026-04-12 12:20 36.79536 11.85910 2399 ft 115 kts 92°
2026-04-12 12:20 36.79720 11.86880 2224 ft 115 kts 91°
2026-04-12 12:20 36.79910 11.87847 2059 ft 113 kts 91°
2026-04-12 12:21 36.80092 11.88796 1889 ft 113 kts 92°
2026-04-12 12:21 36.80274 11.89742 1718 ft 112 kts 91°
2026-04-12 12:21 36.80460 11.90695 1543 ft 111 kts 91°
2026-04-12 12:21 36.80638 11.91636 1363 ft 113 kts 91°
2026-04-12 12:22 36.80816 11.92576 1183 ft 114 kts 88°
2026-04-12 12:22 36.81001 11.93541 1000 ft 112 kts 90°
2026-04-12 12:22 36.81184 11.94478 828 ft 111 kts 89°
2026-04-12 12:22 36.81366 11.95396 670 ft 105 kts 89°
2026-04-12 12:23 36.81516 11.96213 607 ft 80 kts 84°
2026-04-12 12:23 36.81576 11.96524 601 ft 0 kts 76°
2026-04-12 12:23 36.81580 11.96541 601 ft 9 kts 78°
2026-04-12 12:23 36.81598 11.96647 600 ft 14 kts 79°
2026-04-12 12:24 36.81623 11.96770 599 ft 15 kts 77°
2026-04-12 12:24 36.81659 11.96889 597 ft 14 kts 40°
2026-04-12 12:24 36.81721 11.96932 595 ft 8 kts 18°
2026-04-12 12:24 36.81773 11.96878 592 ft 13 kts 297°
2026-04-12 12:25 36.81798 11.96823 590 ft 5 kts 297°
2026-04-12 12:25 36.81806 11.96806 590 ft 0 kts 299°
2026-04-12 12:25 36.81811 11.96792 589 ft 2 kts 295°
2026-04-12 12:25 36.81827 11.96796 589 ft 0 kts 71°
2026-04-12 12:26 36.81827 11.96797 589 ft 0 kts 72°